Middleton, WI

2:47 AM CST on February 21, 2017 (GMT -0600)
Middleton

Weather History for KC29 - November, 2013

Change the Weather History Date:

Saturday, November 16, 2013

  Actual Average (KMSN) Record (KMSN)
Temperature  
Mean Temperature 49 °F -  
Max Temperature 59 °F 45 °F 70 °F (1953)
Min Temperature 39 °F 26 °F 2 °F (1959)
Degree Days  
Heating Degree Days 16    
Moisture  
Dew Point 47 °F    
Average Humidity 89    
Maximum Humidity 96    
Minimum Humidity 78    
Precipitation  
Precipitation 0.15 in - - ()
Sea Level Pressure  
Sea Level Pressure 29.63 in    
Wind  
Wind Speed 12 mph (South)    
Max Wind Speed 25 mph    
Max Gust Speed 34 mph    
Visibility 7 miles    
Events      
Averages and records for this station are not official NWS values.
T = Trace of Precipitation, MM = Missing Value Source: NWS Daily Summary

Daily Weather History Graph

Daily Weather History Graph

Search for Another Location

Airport or City:

Trip Planner

Search our weather history database for the weather conditions in past years. The results will help you decide how hot, cold, wet, or windy it might be!

Date:

Astronomy

Nov. 16, 2013 Rise Set
Actual Time 6:52 AM CST 4:33 PM CST
Civil Twilight 6:21 AM CST 5:03 PM CST
Nautical Twilight 5:47 AM CST 5:38 PM CST
Astronomical Twilight 5:13 AM CST 6:11 PM CST
Moon 4:09 PM CST (11/16) 5:47 AM CST (11/16)
Length of Visible Light 10h 42m
Length of Day
9h 40m
Waxing Gibbous, 99% of the Moon is Illuminated
Nov 16
Waxing Gibbous
Nov 17
Full
Nov 25
Last Quarter
Dec 2
New
Dec 9
First Quarter

Hourly Weather History & Observations

Time (CST) Temp. Windchill Dew Point Humidity Pressure Visibility Wind Dir Wind Speed Gust Speed Precip Events Conditions
12:15 AM 39.6 °F 34.7 °F 33.3 °F 78% 29.86 in 10.0 mi South 6.9 mph - N/A   Clear
12:35 AM 39.6 °F 35.4 °F 33.3 °F 78% 29.85 in 10.0 mi South 5.8 mph - N/A   Clear
1:15 AM 39.6 °F 33.5 °F 33.3 °F 78% 29.84 in 10.0 mi South 9.2 mph - N/A   Clear
1:35 AM 39.4 °F 33.2 °F 33.3 °F 79% 29.84 in 10.0 mi South 9.2 mph - N/A   Clear
1:55 AM 39.2 °F 33.6 °F 33.1 °F 79% 29.84 in 10.0 mi South 8.1 mph - N/A   Scattered Clouds
2:15 AM 39.2 °F 35.0 °F 33.1 °F 79% 29.84 in 10.0 mi South 5.8 mph - N/A   Clear
2:35 AM 39.2 °F 33.0 °F 33.1 °F 79% 29.84 in 10.0 mi South 9.2 mph - N/A   Clear
2:55 AM 39.7 °F 34.9 °F 33.6 °F 79% 29.83 in 10.0 mi South 6.9 mph - N/A   Clear
3:15 AM 39.7 °F 34.9 °F 34.0 °F 80% 29.82 in 10.0 mi South 6.9 mph - N/A   Clear
3:35 AM 40.1 °F 36.1 °F 34.3 °F 80% 29.82 in 10.0 mi South 5.8 mph - N/A   Clear
3:55 AM 39.7 °F 34.9 °F 34.7 °F 82% 29.81 in 10.0 mi SSE 6.9 mph - N/A   Clear
4:15 AM 39.7 °F 36.5 °F 34.9 °F 83% 29.82 in 10.0 mi South 4.6 mph - N/A   Clear
4:35 AM 39.7 °F 34.9 °F 35.1 °F 83% 29.81 in 10.0 mi SSE 6.9 mph - N/A   Scattered Clouds
4:55 AM 40.3 °F 34.9 °F 35.8 °F 84% 29.81 in 10.0 mi South 8.1 mph - N/A   Mostly Cloudy
5:15 AM 41.0 °F 34.3 °F 36.1 °F 83% 29.80 in 10.0 mi South 11.5 mph 16.1 mph N/A   Overcast
5:35 AM 41.0 °F 34.7 °F 37.0 °F 86% 29.79 in 7.0 mi SSE 10.4 mph 18.4 mph N/A   Overcast
5:55 AM 41.0 °F 34.7 °F 38.7 °F 91% 29.78 in 5.0 mi South 10.4 mph - N/A   Overcast
6:15 AM 41.2 °F 34.5 °F 39.6 °F 94% 29.78 in 2.5 mi South 11.5 mph 16.1 mph N/A   Overcast
6:35 AM 41.4 °F 36.2 °F 40.1 °F 95% 29.77 in 2.0 mi South 8.1 mph - N/A   Overcast
6:55 AM 41.9 °F 36.3 °F 40.6 °F 95% 29.76 in 1.5 mi SSE 9.2 mph - N/A   Overcast
7:15 AM 42.4 °F 37.0 °F 41.2 °F 95% 29.76 in 0.8 mi SSE 9.2 mph - N/A   Overcast
7:55 AM 44.1 °F 39.0 °F 43.0 °F 96% 29.74 in 1.8 mi SSE 9.2 mph - N/A   Overcast
8:15 AM 45.1 °F 38.4 °F 44.1 °F 96% 29.73 in 2.5 mi SSE 15.0 mph 21.9 mph N/A   Overcast
8:35 AM 45.9 °F 40.0 °F 44.8 °F 96% 29.73 in 3.0 mi South 12.7 mph 19.6 mph N/A   Overcast
8:55 AM 46.8 °F - 45.3 °F 95% 29.71 in 3.0 mi South 16.1 mph - N/A   Overcast
9:15 AM 46.9 °F - 45.5 °F 95% 29.72 in 3.0 mi South 17.3 mph 24.2 mph N/A   Overcast
9:35 AM 47.3 °F - 45.5 °F 93% 29.71 in 3.0 mi South 16.1 mph 24.2 mph N/A   Overcast
10:15 AM 48.7 °F - 47.3 °F 95% 29.69 in 1.8 mi South 16.1 mph 24.2 mph N/A   Overcast
10:35 AM 49.1 °F - 47.3 °F 93% 29.68 in 2.0 mi South 16.1 mph 21.9 mph N/A   Overcast
10:55 AM 49.3 °F - 47.7 °F 94% 29.68 in 1.5 mi South 15.0 mph 25.3 mph N/A   Overcast
11:15 AM 50.0 °F - 48.4 °F 94% 29.66 in 1.8 mi South 15.0 mph 21.9 mph N/A   Overcast
11:35 AM 50.4 °F - 49.1 °F 95% 29.64 in 1.8 mi South 18.4 mph 24.2 mph N/A   Overcast
11:55 AM 50.9 °F - 49.5 °F 95% 29.63 in 1.8 mi South 19.6 mph 23.0 mph N/A   Overcast
12:15 PM 51.4 °F - 50.0 °F 95% 29.63 in 2.0 mi South 17.3 mph 23.0 mph N/A   Overcast
12:35 PM 51.8 °F - 50.4 °F 95% 29.61 in 2.0 mi South 16.1 mph - N/A   Overcast
12:55 PM 52.5 °F - 50.9 °F 94% 29.60 in 2.0 mi South 15.0 mph - N/A   Overcast
1:15 PM 52.7 °F - 50.9 °F 94% 29.58 in 3.0 mi South 19.6 mph 24.2 mph N/A   Overcast
1:35 PM 52.9 °F - 51.1 °F 94% 29.58 in 4.0 mi South 16.1 mph 21.9 mph N/A   Overcast
1:55 PM 53.4 °F - 51.6 °F 94% 29.56 in 3.0 mi South 17.3 mph 26.5 mph 0.03 in   Overcast
2:15 PM 53.8 °F - 52.0 °F 94% 29.54 in 7.0 mi SSE 15.0 mph 19.6 mph 0.01 in   Overcast
2:35 PM 54.1 °F - 52.3 °F 94% 29.53 in 5.0 mi South 13.8 mph 25.3 mph 0.02 in   Overcast
2:55 PM 54.5 °F - 52.7 °F 94% 29.51 in 5.0 mi South 16.1 mph 24.2 mph 0.03 in   Overcast
3:15 PM 54.9 °F - 52.7 °F 92% 29.50 in 5.0 mi SSE 15.0 mph 25.3 mph N/A   Overcast
3:35 PM 55.2 °F - 53.1 °F 92% 29.51 in 4.0 mi South 18.4 mph - 0.04 in   Overcast
3:55 PM 55.4 °F - 53.2 °F 92% 29.48 in 4.0 mi South 20.7 mph 27.6 mph 0.08 in   Overcast
4:15 PM 55.9 °F - 53.6 °F 92% 29.48 in 7.0 mi South 18.4 mph 28.8 mph N/A   Overcast
4:35 PM 56.3 °F - 53.6 °F 91% 29.46 in 7.0 mi South 20.7 mph 27.6 mph N/A   Overcast
4:55 PM 56.3 °F - 53.8 °F 91% 29.46 in 5.0 mi South 17.3 mph 28.8 mph N/A   Overcast
5:15 PM 56.5 °F - 54.0 °F 91% 29.45 in 7.0 mi South 24.2 mph 34.5 mph 0.01 in   Overcast
5:35 PM 56.7 °F - 54.3 °F 92% 29.46 in 7.0 mi South 17.3 mph 28.8 mph 0.01 in   Overcast
5:55 PM 57.2 °F - 54.5 °F 91% 29.46 in 10.0 mi South 19.6 mph 27.6 mph 0.01 in   Overcast
6:15 PM 57.6 °F - 54.7 °F 90% 29.46 in 10.0 mi South 18.4 mph 28.8 mph N/A   Overcast
6:35 PM 58.1 °F - 54.9 °F 89% 29.46 in 10.0 mi South 25.3 mph 32.2 mph N/A   Overcast
6:55 PM 58.3 °F - 54.9 °F 88% 29.47 in 10.0 mi South 17.3 mph 29.9 mph N/A   Overcast
7:15 PM 58.5 °F - 54.7 °F 87% 29.46 in 10.0 mi South 24.2 mph 33.4 mph N/A   Overcast
7:35 PM 58.5 °F - 54.7 °F 87% 29.46 in 10.0 mi South 19.6 mph 29.9 mph N/A   Overcast
7:55 PM 58.6 °F - 54.7 °F 87% 29.46 in 10.0 mi SSW 21.9 mph 27.6 mph N/A   Overcast
8:15 PM 59.0 °F - 54.9 °F 86% 29.46 in 10.0 mi SSW 23.0 mph 32.2 mph N/A   Overcast
8:35 PM 59.2 °F - 54.9 °F 86% 29.46 in 10.0 mi SSW 19.6 mph 31.1 mph N/A   Overcast
8:55 PM 59.2 °F - 54.9 °F 86% 29.46 in 10.0 mi SSW 17.3 mph 28.8 mph N/A   Overcast
9:15 PM 59.0 °F - 54.9 °F 86% 29.46 in 10.0 mi SSW 18.4 mph 28.8 mph N/A   Overcast
9:35 PM 59.0 °F - 54.9 °F 86% 29.47 in 10.0 mi SSW 19.6 mph 26.5 mph N/A   Overcast
9:55 PM 59.2 °F - 55.0 °F 86% 29.47 in 10.0 mi SSW 20.7 mph 27.6 mph N/A   Overcast
10:15 PM 59.2 °F - 55.0 °F 86% 29.48 in 10.0 mi SSW 16.1 mph 19.6 mph N/A   Overcast
10:35 PM 59.4 °F - 55.4 °F 87% 29.47 in 10.0 mi SSW 16.1 mph 21.9 mph N/A   Overcast
10:55 PM 59.2 °F - 55.4 °F 87% 29.47 in 10.0 mi SSW 15.0 mph 23.0 mph N/A   Overcast
11:15 PM 58.6 °F - 55.4 °F 89% 29.47 in 10.0 mi SSW 15.0 mph 20.7 mph N/A   Overcast
11:35 PM 58.3 °F - 55.0 °F 89% 29.47 in 10.0 mi SSW 13.8 mph 19.6 mph N/A   Overcast
11:55 PM 58.6 °F - 55.4 °F 89% 29.47 in 10.0 mi SSW 13.8 mph 21.9 mph N/A   Mostly Cloudy